Location: Katowice
(50.2611°N, 19.0242°E)
Time: 22:46:15
(UTC+02:00)

A-11 Canister half - Pass Details

Date: 28 July 2019
Orbit: 1526 x 1683 km, 47.3° (Epoch: 23 August)

Event Time Altitude Azimuth Distance (km) Brightness Sun altitude
Rises 21:40:20 0° 259° (WSW) 4,923 12.2 -9.2°
Reaches altitude 10° 21:43:31 10° 258° (WSW) 3,925 11.6 -9.5°
Maximum altitude 21:53:33 76° 175° (S) 1,686 9.1 -10.6°
Drops below altitude 10° 22:03:16 10° 92° (E) 3,815 10.7 -11.6°
Sets 22:06:19 0° 91° (E) 4,779 11.2 -12.0°
